TimeCST,TemperatureF,Dew PointF,Humidity,Sea Level PressureIn,VisibilityMPH,Wind Direction,Wind SpeedMPH,Gust SpeedMPH,PrecipitationIn,Events,Conditions,WindDirDegrees,DateUTC
12:13 AM,1.4,-4.0,78,30.07,10.0,ESE,5.8,-,N/A,,Overcast,110,2013-12-16 06:13:00
12:32 AM,1.4,-4.0,78,30.06,10.0,SE,6.9,-,N/A,,Overcast,130,2013-12-16 06:32:00
12:53 AM,1.4,-2.2,85,30.05,10.0,ESE,6.9,-,N/A,,Overcast,120,2013-12-16 06:53:00
1:13 AM,3.2,-2.2,78,30.04,10.0,ESE,8.1,-,N/A,,Overcast,120,2013-12-16 07:13:00
1:32 AM,1.4,-2.2,85,30.05,10.0,ESE,5.8,-,N/A,,Overcast,120,2013-12-16 07:32:00
1:53 AM,1.4,-2.2,85,30.04,10.0,SE,5.8,-,N/A,,Overcast,140,2013-12-16 07:53:00
2:12 AM,3.2,-2.2,78,30.04,10.0,SE,6.9,-,N/A,,Mostly Cloudy,130,2013-12-16 08:12:00
2:33 AM,3.2,-2.2,78,30.03,10.0,SE,8.1,-,N/A,,Mostly Cloudy,130,2013-12-16 08:33:00
2:53 AM,3.2,-2.2,78,30.03,10.0,SSE,6.9,-,N/A,,Overcast,150,2013-12-16 08:53:00
3:13 AM,3.2,-0.4,85,30.02,10.0,SE,8.1,-,N/A,,Overcast,140,2013-12-16 09:13:00
3:32 AM,3.2,-0.4,85,30.02,10.0,SSE,5.8,-,N/A,,Overcast,150,2013-12-16 09:32:00
3:53 AM,3.2,-0.4,85,30.00,10.0,SSE,4.6,-,N/A,,Overcast,150,2013-12-16 09:53:00
4:13 AM,5.0,1.4,85,29.99,10.0,SSE,5.8,-,N/A,,Overcast,160,2013-12-16 10:13:00
4:32 AM,5.0,1.4,85,29.98,10.0,SSE,5.8,-,N/A,,Overcast,150,2013-12-16 10:32:00
4:53 AM,5.0,1.4,85,29.97,10.0,SSE,5.8,-,N/A,,Overcast,160,2013-12-16 10:53:00
5:13 AM,5.0,1.4,85,29.96,10.0,SSE,5.8,-,N/A,,Overcast,150,2013-12-16 11:13:00
5:32 AM,6.8,3.2,85,29.96,10.0,SSE,4.6,-,N/A,,Overcast,150,2013-12-16 11:32:00
5:53 AM,6.8,3.2,85,29.98,2.5,SSE,3.5,-,N/A,Snow,Light Snow,160,2013-12-16 11:53:00
6:13 AM,6.8,3.2,85,29.96,4.0,SE,8.1,-,N/A,Snow,Light Snow,140,2013-12-16 12:13:00
6:32 AM,6.8,3.2,85,29.95,5.0,SSE,5.8,-,N/A,Snow,Light Snow,150,2013-12-16 12:32:00
6:53 AM,6.8,5.0,92,29.95,7.0,SE,4.6,-,N/A,Snow,Light Snow,140,2013-12-16 12:53:00
7:13 AM,8.6,5.0,85,29.96,1.5,SE,3.5,-,N/A,Snow,Light Snow,140,2013-12-16 13:13:00
7:32 AM,8.6,5.0,85,29.97,1.8,Calm,Calm,-,N/A,Snow,Light Snow,0,2013-12-16 13:32:00
7:53 AM,8.6,6.8,92,29.96,3.0,Calm,Calm,-,N/A,,Overcast,0,2013-12-16 13:53:00
8:13 AM,8.6,6.8,92,29.96,7.0,SE,3.5,-,N/A,Snow,Light Snow,140,2013-12-16 14:13:00
8:32 AM,8.6,6.8,92,29.95,10.0,SSE,4.6,-,N/A,,Overcast,150,2013-12-16 14:32:00
8:53 AM,8.6,6.8,92,29.96,10.0,SSE,3.5,-,N/A,,Overcast,150,2013-12-16 14:53:00
9:13 AM,8.6,6.8,92,29.95,10.0,SE,4.6,-,N/A,,Overcast,140,2013-12-16 15:13:00
9:32 AM,8.6,6.8,92,29.94,7.0,SSE,6.9,-,N/A,Snow,Light Snow,150,2013-12-16 15:32:00
9:53 AM,10.4,6.8,85,29.93,10.0,SSE,6.9,-,N/A,,Overcast,150,2013-12-16 15:53:00
10:13 AM,10.4,8.6,92,29.94,7.0,South,3.5,-,N/A,,Overcast,170,2013-12-16 16:13:00
10:33 AM,10.4,8.6,92,29.94,10.0,SSW,3.5,-,N/A,,Overcast,210,2013-12-16 16:33:00
10:52 AM,10.4,8.6,92,29.94,7.0,SSW,4.6,-,N/A,,Overcast,210,2013-12-16 16:52:00
11:13 AM,12.2,10.4,92,29.95,3.0,WSW,3.5,-,N/A,Snow,Light Snow,240,2013-12-16 17:13:00
11:33 AM,12.2,10.4,92,29.95,7.0,SW,3.5,-,N/A,,Overcast,220,2013-12-16 17:33:00
11:52 AM,14.0,10.4,86,29.93,10.0,SW,5.8,-,N/A,,Overcast,230,2013-12-16 17:52:00
12:13 PM,14.0,10.4,86,29.92,10.0,SW,5.8,-,N/A,Snow,Light Snow,230,2013-12-16 18:13:00
12:33 PM,15.8,12.2,86,29.91,10.0,SW,6.9,-,N/A,,Overcast,230,2013-12-16 18:33:00
12:52 PM,15.8,12.2,86,29.92,7.0,WSW,8.1,-,N/A,,Overcast,240,2013-12-16 18:52:00
1:13 PM,15.8,12.2,86,29.91,7.0,WSW,5.8,-,N/A,,Overcast,240,2013-12-16 19:13:00
1:33 PM,17.6,14.0,86,29.92,10.0,West,5.8,-,N/A,,Overcast,260,2013-12-16 19:33:00
1:52 PM,17.6,15.8,93,29.92,10.0,WSW,6.9,-,N/A,,Overcast,250,2013-12-16 19:52:00
2:13 PM,17.6,15.8,93,29.93,7.0,West,6.9,-,N/A,,Overcast,270,2013-12-16 20:13:00
2:33 PM,17.6,15.8,93,29.93,10.0,West,5.8,-,N/A,,Overcast,280,2013-12-16 20:33:00
2:52 PM,19.4,15.8,86,29.93,7.0,West,6.9,-,N/A,,Mostly Cloudy,280,2013-12-16 20:52:00
3:13 PM,17.6,15.8,93,29.93,7.0,West,4.6,-,N/A,,Clear,270,2013-12-16 21:13:00
3:33 PM,19.4,15.8,86,29.94,10.0,West,3.5,-,N/A,,Clear,260,2013-12-16 21:33:00
3:52 PM,17.6,15.8,93,29.95,7.0,WSW,4.6,-,N/A,,Clear,250,2013-12-16 21:52:00
4:13 PM,17.6,15.8,93,29.95,7.0,WSW,4.6,-,N/A,,Clear,240,2013-12-16 22:13:00
4:33 PM,15.8,14.0,93,29.95,7.0,Calm,Calm,-,N/A,,Clear,0,2013-12-16 22:33:00
4:52 PM,12.2,12.2,100,29.95,7.0,SW,3.5,-,N/A,,Clear,220,2013-12-16 22:52:00
5:13 PM,12.2,12.2,100,29.95,7.0,WSW,4.6,-,N/A,,Clear,240,2013-12-16 23:13:00
5:32 PM,12.2,12.2,100,29.95,7.0,SW,4.6,-,N/A,,Clear,230,2013-12-16 23:32:00
5:53 PM,12.2,12.2,100,29.95,7.0,SW,4.6,-,N/A,,Clear,230,2013-12-16 23:53:00
6:13 PM,14.0,12.2,93,29.94,10.0,SW,4.6,-,N/A,,Clear,230,2013-12-17 00:13:00
6:32 PM,15.8,14.0,93,29.93,10.0,Calm,Calm,-,N/A,,Clear,0,2013-12-17 00:32:00
6:53 PM,15.8,14.0,93,29.92,10.0,Calm,Calm,-,N/A,,Clear,0,2013-12-17 00:53:00
7:13 PM,15.8,14.0,93,29.92,10.0,SW,4.6,-,N/A,,Clear,220,2013-12-17 01:13:00
7:32 PM,17.6,15.8,93,29.92,10.0,Calm,Calm,-,N/A,,Clear,0,2013-12-17 01:32:00
7:53 PM,17.6,15.8,93,29.92,10.0,Calm,Calm,-,N/A,,Clear,0,2013-12-17 01:53:00
8:13 PM,17.6,17.6,100,29.91,10.0,WSW,4.6,-,N/A,,Clear,240,2013-12-17 02:13:00
8:32 PM,19.4,17.6,93,29.92,10.0,WSW,5.8,-,N/A,,Clear,240,2013-12-17 02:32:00
8:53 PM,21.2,21.2,100,29.91,10.0,West,8.1,-,N/A,,Clear,260,2013-12-17 02:53:00
9:13 PM,24.8,21.2,86,29.90,10.0,West,9.2,-,N/A,,Clear,260,2013-12-17 03:13:00
9:32 PM,26.6,23.0,86,29.91,10.0,West,9.2,-,N/A,,Clear,260,2013-12-17 03:32:00
9:53 PM,28.4,24.8,86,29.90,10.0,West,10.4,16.1,N/A,,Clear,260,2013-12-17 03:53:00
10:13 PM,30.2,24.8,80,29.90,10.0,West,9.2,19.6,N/A,,Clear,260,2013-12-17 04:13:00
10:32 PM,30.2,26.6,86,29.90,10.0,WSW,10.4,16.1,N/A,,Clear,250,2013-12-17 04:32:00
10:53 PM,30.2,26.6,86,29.90,10.0,WSW,9.2,-,N/A,,Scattered Clouds,250,2013-12-17 04:53:00
11:13 PM,30.2,26.6,86,29.90,10.0,WSW,8.1,16.1,N/A,,Mostly Cloudy,250,2013-12-17 05:13:00
11:53 PM,33.8,28.4,81,29.89,10.0,West,13.8,-,N/A,,Scattered Clouds,260,2013-12-17 05:53:00